Flag for United Kingdom Weather past 2 weeks in Cardiff, Wales, United Kingdom

50 °F


Feels Like: 48 °F
Forecast: 43 / 59 °F
Wind: 5 mph from Northwest

Location: Wales Airport

Current Time: Oct 7, 2015 at 8:29:23 PM

Latest Report: Oct 7, 2015 at 7:50 PM

Visibility: N/A

Pressure: 30.01 "Hg

Humidity: 76%

Dew point: 43 °F

Location of CardiffLocation

Historic Weather in Cardiff — Graph


Cardiff temperature yesterday

Maximum temperature yesterday: 64 °F (at 3:20 PM)
Minimum temperature yesterday: 57 °F (at 2:50 AM)
Average temperature yesterday: 60 °F

Past Weeks' High & Low Weather Summary

High66 °F (Oct 5, 12:20 PM)100% (Sep 23, 1:20 AM)30.60 "Hg (Sep 23, 1:20 AM)
Low45 °F (Sep 26, 1:50 AM)52% (Sep 26, 3:20 PM)29.33 "Hg (Oct 6, 7:50 AM)
Average55 °F84%30.11 "Hg
* Reported Sep 22 7:20 PM — Oct 7 7:20 PM, Cardiff, Weather by CustomWeather, © 2015

Note: Actual official high and low records may vary slightly from our data, if they occured in-between our weather recording intervals... More about our weather records


Cardiff weather history for previous 24 hours

Time TempWeatherWind HumidityBarometerVisibility
7:20 PM
Wed, Oct 7
48 °FPassing clouds.6 mph82%30.01 "HgN/A
6:50 PM50 °FScattered clouds.7 mph76%30.01 "HgN/A
6:20 PM52 °FPartly sunny.12 mph72%29.98 "HgN/A
5:50 PM54 °FPassing clouds.13 mph67%29.98 "HgN/A
5:20 PM55 °FScattered clouds.14 mph63%29.98 "HgN/A
4:50 PM55 °FCool.15 mph63%29.95 "HgN/A
4:20 PM57 °FRefreshingly cool.15 mph59%29.95 "HgN/A
3:50 PM55 °FPassing clouds.16 mph63%29.95 "HgN/A
3:20 PM59 °FPartly sunny.15 mph63%29.92 "HgN/A
2:50 PM57 °FBroken clouds.15 mph67%29.92 "HgN/A
2:20 PM57 °FBroken clouds.12 mph72%29.92 "HgN/A
1:50 PM55 °FOvercast.15 mph82%29.92 "HgN/A
1:20 PM57 °FBroken clouds.16 mph77%29.92 "HgN/A
12:50 PM57 °FMostly cloudy.17 mph77%29.89 "HgN/A
12:20 PM57 °FMostly cloudy.16 mph82%29.89 "HgN/A
11:50 AM57 °FMostly cloudy.17 mph82%29.89 "HgN/A
11:20 AM55 °FOvercast.18 mph88%29.86 "HgN/A
10:50 AM55 °FOvercast.17 mph88%29.86 "HgN/A
10:20 AM54 °FOvercast.17 mph88%29.86 "HgN/A
9:50 AM54 °FOvercast.17 mph88%29.83 "HgN/A
9:20 AM54 °FMostly cloudy.21 mph88%29.80 "HgN/A
8:50 AM54 °FOvercast.21 mph88%29.80 "HgN/A
8:20 AM54 °FOvercast.21 mph88%29.80 "HgN/A
7:50 AM54 °FMostly cloudy.17 mph88%29.77 "HgN/A
7:20 AM52 °FOvercast.18 mph100%29.77 "HgN/A
6:50 AM52 °FLow clouds.21 mph94%29.74 "HgN/A
6:20 AM52 °FOvercast.18 mph94%29.74 "HgN/A
5:50 AM54 °FOvercast.18 mph94%29.71 "HgN/A
5:20 AM54 °FLow clouds.16 mph94%29.71 "HgN/A
4:50 AM54 °FPassing clouds.18 mph94%29.68 "HgN/A
4:20 AM54 °FLow clouds.20 mph100%29.65 "HgN/A
3:50 AM54 °FPassing clouds.17 mph100%29.65 "HgN/A
3:20 AM54 °FLight rain. Low clouds.16 mph100%29.65 "HgN/A
2:50 AM54 °FLight rain. Low clouds.17 mph100%29.62 "HgN/A
2:20 AM54 °FLow clouds.17 mph100%29.62 "HgN/A
1:50 AM55 °FLow clouds.18 mph94%29.59 "HgN/A
1:20 AM55 °FLight rain. Low clouds.18 mph100%29.59 "HgN/A
12:50 AM55 °FLight rain. Low clouds.17 mph100%29.56 "Hg4 mi
12:20 AM57 °FLight rain. Low clouds.17 mph100%29.56 "HgN/A
11:50 PM
Tue, Oct 6
57 °FLight rain. Low clouds.14 mph100%29.53 "HgN/A
11:20 PM59 °FLight rain. Low clouds.14 mph94%29.53 "HgN/A
10:20 PM59 °FPassing clouds.10 mph100%29.50 "HgN/A
9:50 PM59 °FPassing clouds.10 mph94%29.50 "HgN/A
9:20 PM59 °FLight rain. Passing clouds.9 mph100%29.47 "HgN/A
8:50 PM59 °FRain. Mostly cloudy.13 mph100%29.47 "Hg2 mi
8:20 PM59 °FPassing clouds.12 mph94%29.45 "HgN/A
Weather by CustomWeather, © 2015

See weather overviewHow to use our weather pages